Location: Spangle
(47.4302°N, 117.3779°W)
Time: 11:50:14
(UTC+00:00)

ISS - Pass Details

Date: 26 April 2026
Orbit: 414 x 424 km, 51.6° (Epoch: 11 May)

Event Time Altitude Azimuth Distance (km) Brightness Sun altitude
Exits shadow 11:17:22 18° 271° (W) 1,104 -2.1 -13.1°
Maximum altitude 11:19:39 53° 344° (NNW) 524 -3.2 -12.8°
Drops below altitude 10° 11:22:58 10° 63° (ENE) 1,507 0.5 -12.4°
Sets 11:25:07 0° 68° (ENE) 2,375 1.8 -12.1°
